www.pogodaiklimat.ru

Погода и климат >> Архив погоды >> Россия >> Кемеровская область >> Мариинск


ПОГОДА в Мариинске

  • Прогноз погоды в Мариинске
  • Монитор погоды в Мариинске

АРХИВ ПОГОДЫ в Мариинске

Время (UTC), дата Ветер
(напр.,м/с)
 
Видим.   Явления Облачность Т
(С)
Тd
(С)
f
(%)
Тe
(С)
Тes
(С)
Комфортность P
(гПа)
Po
(гПа)
Тmin
(С)
Tmax
(С)
R
(мм)
R24
(мм)
S
(см)
00 15.07 С 2 50 км 3/1 600 м
[Cb calv Ac trans]
+15.1 +10.8 75 +15 +16 1011.3 994.3 +10.9
03 15.07 С 4 50 км 9/9 600 м
[Cb calv]
+17.1 +9.2 60 +17 +17 1010.6 993.7
06 15.07 С 3 50 км 10/10 600 м
[Cb calv]
+17.3 +9.8 61 +17 +17 1010.3 993.4
09 15.07 СВ 3 50 км 8/8 600 м
[Cb calv]
+19.6 +10.9 57 +21 +23 комфорт 1009.8 993.0
12 15.07 СВ 2
{12}
50 км 5/4 600 м
[Cb calv Ci sp]
+21.4 +10.7 50 +23 +24 комфорт 1009.3 992.7 +21.6
15 15.07 СВ 2 20 км гроза без осадков 10/8 600 м
[Cb cap Ci sp]
+17.5 +14.5 83 +18 +18 1009.7 992.9
18 15.07 штиль 0 20 км в посл. час ливневой дождь {гроза} 10/10 600 м
[Cb calv]
+14.2 +13.3 94 +14 +14 1008.7 991.7
21 15.07 СЗ 1 20 км 10/10 600 м
[Cb calv]
+14.1 +13.4 96 +14 +14 1007.6 990.6
00 16.07 штиль 0 50 км 10/5 600 м
[Cb calv Ci sp]
+15.6 +14.6 94 +15 +16 1006.7 989.8 +13.9 0.0
03 16.07 штиль 0 50 км 10/10 600 м
[Cb calv]
+16.6 +14.3 86 +16 +16 1006.1 989.3
06 16.07 ЮВ 1 50 км 10/8 600 м
[Cb calv Ci sp]
+19.2 +13.5 70 +22 +24 комфорт 1005.3 988.6
09 16.07 В 3 50 км 10/6 600 м
[Cb calv Ci sp]
+21.9 +13.1 57 +25 +27 комфорт 1004.6 988.1
12 16.07 В 2 50 км 10/6 600 м
[Cb calv Ci sp]
+20.3 +13.5 65 +23 +24 комфорт 1005.0 988.4 +22.7
15 16.07 В 1 20 км 10/5 600 м
[Cb calv Ci sp]
+16.8 +13.5 81 +18 +18 1005.8 989.0
18 16.07 В 1 20 км 10/3 600 м
[Cb calv Ci sp]
+13.2 +12.7 97 +13 +13 1005.3 988.3
21 16.07 ЮВ 1 4000 м дымка 10/8 600 м
[Cb calv Ci sp]
+13.3 +12.8 97 +13 +13 1005.5 988.4
00 17.07 штиль 0 4000 м дымка {туман} 8/3 600 м
[Cb calv Ac trans Ci sp]
+12.9 +12.6 98 +12 +13 1005.3 988.3 +10.1
03 17.07 штиль 0 50 км 9/5 600 м
[Cb calv Ac trans Ci sp]
+19.3 +15.1 77 +21 +25 комфорт 1005.1 988.5
06 17.07 СВ 1 10 км слаб. ливневой дождь 10/8 600 м
[Cb calv Ci sp]
+19.3 +17.3 88 +22 +25 комфорт 1005.3 988.6
09 17.07 В 3 50 км {ливн. осадки} 8/4 600 м
[Cb calv Ci sp]
+22.5 +14.7 61 +26 +30 жарко 1005.0 988.5
12 17.07 В 2 50 км {ливн. осадки} 8/4 600 м
[Cb calv Ci sp]
+21.4 +14.2 64 +24 +25 комфорт 1005.5 988.9 +22.8 0.0
15 17.07 штиль 0 20 км 10/5 600 м
[Cb calv Ac trans Ci sp]
+19.4 +15.2 77 +21 +21 комфорт 1005.7 989.0
18 17.07 штиль 0 20 км 8/4 600 м
[Cb calv Ci sp]
+14.2 +12.9 92 +14 +14 1005.6 988.7
21 17.07 штиль 0 20 км 8/3 600 м
[Cb calv Ci fib]
+13.3 +12.7 96 +13 +13 1005.3 988.3
00 18.07 штиль 0 4000 м дымка 8/3 600 м
[Cb calv Ci fib]
+13.7 +13.1 96 +13 +14 1005.5 988.5 +12.2
03 18.07 В 1 50 км 6/3 600 м
[Cu hum Ci sp]
+20.1 +15.2 73 +24 +31 комфорт 1004.8 988.2
06 18.07 В 1 50 км 8/6 1000 м
[Cb calv Ci sp]
+24.8 +12.9 48 +27 +33 жарко 1003.8 987.5
09 18.07 Ю 2 50 км 10/8 600 м
[Cb calv Ci sp]
+23.5 +15.4 60 +26 +28 жарко 1003.7 987.3
12 18.07 ЮВ 2 50 км 8/6 1000 м
[Cb calv Ci sp]
+23.6 +14.3 56 +26 +27 жарко 1004.0 987.6 +26.0
15 18.07 штиль 0 20 км 10/4 600 м
[Cb calv Ac trans Ci sp]
+21.1 +15.7 71 +24 +24 комфорт 1004.6 988.1
18 18.07 штиль 0 20 км в посл. час ливневой дождь 10/10 600 м
[Cb calv]
+18.9 +17.1 89 +20 +20 1005.0 988.3
21 18.07 штиль 0 20 км 8/3 600 м
[Cb calv Ci sp]
+16.0 +15.3 96 +16 +16 1005.0 988.2
00 19.07 штиль 0 20 км 6/3 600 м
[Cb calv Ac trans Ci sp]
+15.9 +15.0 94 +16 +17 1005.8 989.0 +15.9 0.3
03 19.07 штиль 0 50 км 8/6 600 м
[Cb calv Ac trans Ci sp]
+19.8 +16.4 81 +22 +26 комфорт 1005.8 989.2
06 19.07 СЗ 1 50 км 9/5 600 м
[Cb calv Ac trans Ci sp]
+21.9 +16.4 71 +26 +31 душно 1006.3 989.8
09 19.07 СВ 2 50 км 8/3 1000 м
[Cb calv Ac trans Ci sp]
+24.3 +12.9 49 +26 +31 жарко 1005.6 989.2
12 19.07 С 1 50 км 9/6 1000 м
[Cb calv Ci sp]
+23.8 +14.5 56 +26 +27 жарко 1006.2 989.8 +25.6
15 19.07 ЮЗ 1 20 км {ливн. осадки} 10/8 600 м
[Cb calv Ci sp]
+20.8 +17.7 82 +26 +26 душно 1006.6 990.0
18 19.07 штиль 0 20 км {ливн. осадки} 10/10 600 м
[Cb calv]
+18.3 +17.4 94 +19 +19 1006.8 990.1
21 19.07 СВ 1 20 км 10/10 600 м
[Cb calv]
+18.2 +17.3 94 +20 +20 1006.8 990.1
00 20.07 СВ 4 20 км 10/4 600 м
[Cb calv As op]
+17.3 +16.0 92 +17 +17 1007.7 990.9 +17.3 0.0
03 20.07 СВ 3 50 км 3/3 1000 м
[Cu hum]
+20.0 +12.1 60 +22 +27 комфорт 1008.1 991.4
06 20.07 В 2 50 км 10/3 1000 м
[Cu hum Ci sp]
+22.3 +9.7 45 +24 +32 комфорт 1007.9 991.3
09 20.07 СВ 3 50 км 10/4 600 м
[Cb calv Ci sp]
+22.3 +10.1 46 +24 +28 комфорт 1008.1 991.6
12 20.07 СВ 3 4000 м мгла 10/5 600 м
[Cb calv As op]
+19.9 +9.4 51 +21 +22 комфорт 1008.9 992.1 +23.1
15 20.07 штиль 0 4000 м мгла 6/3 600 м
[Cb calv Ci sp]
+13.1 +9.7 80 +13 +13 1010.0 992.8
18 20.07 штиль 0 20 км 4/0
[Ci sp]
+9.1 +8.4 95 +8 +8 1009.6 992.3
21 20.07 СВ 1 20 км 8/0
[Ac trans Ci sp]
+10.4 +9.3 93 +10 +10 1008.9 991.6
00 21.07 штиль 0 4000 м дымка {ливн. осадки} 10/6 600 м
[Cb calv Ci sp]
+11.1 +9.5 90 +10 +11 1008.9 991.7 +8.7 0.0
03 21.07 З 1 4000 м слаб. ливневой дождь 10/8 600 м
[Cb calv Ci sp]
+11.4 +10.2 92 +11 +13 1008.0 990.8
06 21.07 ЮЗ 2 20 км {ливн. осадки} 10/4 600 м
[Cb calv Ci sp]
+15.5 +9.5 67 +15 +22 1006.7 989.8
09 21.07 штиль 0 4000 м слаб. ливневой дождь 10/8 600 м
[Cb calv Ci sp]
+14.8 +11.9 83 +15 +17 1006.8 989.8
12 21.07 штиль 0 4000 м слаб. ливневой дождь 10/8 600 м
[Cb calv Ci sp]
+13.4 +12.7 96 +13 +13 1007.5 990.5 +17.2 1
15 21.07 штиль 0 4000 м слаб. ливневой дождь 10/8 600 м
[Cb calv As op]
+12.1 +11.1 94 +11 +11 1007.2 990.1
18 21.07 СВ 1 4000 м {ливн. осадки} 10/6 600 м
[Cb calv Ac As]
+12.2 +11.6 96 +12 +12 1006.0 988.9
21 21.07 штиль 0 4000 м 10/4 600 м
[Cb calv Ci sp]
+11.3 +10.8 97 +11 +11 1005.1 988.0

 

Местоположение метеостанции Мариинск (Кемеровская область, Россия): широта 56.18 долгота 87.68 высота над уровнем моря 144 м.

В архиве по умолчанию представлена погода в Мариинске за последнюю неделю. Архивные данные за месяц целиком и за предыдущие месяцы, начиная с января 2011 года, Вы можете получить, выбрав интересующий диапазон дат из раскрывающегося списка и нажав кнопку "Ввод!".


*Определитесь, кто Вы:
робот инопланетянин человек

Внимание! Время в таблицах - всемирное. Для получения местного времени необходимо прибавить поправку, которая равна 7 ч.

Смотрите также архив погоды в соседних городах и на ближайших метеорологических станциях:

Погода в Тяжине (Кемеровская область, Россия) (52 км)
Погода в Тисуле (Кемеровская область, Россия) (61 км)
Погода в Яе (Кемеровская область, Россия) (75 км)
Погода в Барзасе (Кемеровская область, Россия) (103 км)
Погода в Тюхтете (Красноярский край, Россия) (108 км)
Погода в Центральном Руднике (Кемеровская область, Россия) (109 км)
Погода в Боготоле (Красноярский край, Россия) (118 км)
Погода в Шарыпово (Красноярский край, Россия) (119 км)
Погода в Кемерово АМС (Кемеровская область, Россия) (127 км)
Погода в Тегульдете (Томская область, Россия) (128 км)

Пояснения к столбцам:

Ветер - указаны скорость ветра в м/с - средняя за 10 мин, порывы в срок и между сроками (в фигурных скобках) и направление, откуда дует ветер: С - северный, СВ - северо-восточный, В - восточный, ЮВ - юго-восточный, Ю - южный, ЮЗ - юго-западный, З - западный, СЗ - северо-западный.
Видимость - горизонтальная дальность видимости в метрах или километрах. При видимости от 1 до 10 км при отсутствии осадков обычно наблюдается дымка, при ухудшении видимости до 1 км и менее - туман. В сухую погоду видимость может ухудшаться дымом, пылью или мглою.
Явления - указаны атмосферные явления, наблюдавшиеся в срок или в последний час перед сроком; фигурными скобками обозначены явления, наблюдавшиеся между сроками (за 1-3 часа до срока); квадратными скобками обозначены град или гололедные отложения с указанием их диаметра в мм.
Облачность - указаны через наклонную черту общая и нижняя облачность в баллах и высота нижней границы облаков в метрах; квадратными скобками обозначены формы облаков: Ci - перистые, Cs - перисто-слоистые, Cc - перисто-кучевые, Ac - высококучевые, As - высокослоистые, Sc - слоисто-кучевые, Ns - слоисто-дождевые, Cu - кучевые, Cb - кучево-дождевые. Подробнее классификацию облаков см. в Атласе облаков (PDF).
T - Температура воздуха - температура, измеренная на высоте 2 м над землей.
Td - Температура точки росы - температура, при понижении до которой содержащийся в воздухе водяной пар достигнет насыщения.
f - Относительная влажность воздуха - влажноcть воздуха, измеренная на высоте 2 м над землей.
Te - Эффективная температура - температура, которую ощущает одетый по сезону человек в тени. Характеристика душности погоды. При расчете учитывается влияние влажности воздуха и скорости ветра на теплоощущения человека.
Tes - Эффективная температура на солнце - температура, которую ощущает человек, с поправкой на солнечный нагрев. Характеристика знойности погоды. Зависит от высоты солнца над горизонтом, облачности и скорости ветра. Ночью, в пасмурную погоду, а также при ветре 12 м/с и более поправка равна нулю.
P - Атмосферное давление - приведенное к уровню моря атмосферное давление.
Po - Атмосферное давление - измеренное на уровне метеостанции атмосферное давление.
Tmin - Минимальная температура - минимум температуры воздуха на высоте 2 м над землей.
Tmax - Максимальная температура - максимум температуры воздуха на высоте 2 м над землей.
R - Количество осадков - Количество выпавших осадков за период времени, мм. При наведении курсора мыши на число - период времени, за который выпало указанное количество осадков.
R24 - Количество осадков - Количество выпавших осадков за 24 часа, мм.
S - Снежный покров - Высота снежного покрова, см. При наведении курсора мыши на число - состояние снежного покрова и степень покрытия местности в баллах.